SCP
1 2 1 1 1 0 0 0 0 0 0 0 0 0 0 0 0 0 0 0 0 1 1 1 1 1 1 0 0 0 0 0 0 0 0 0 0 0 0 0 0 0 0 0 0 0 0 0 0
1 1 1 1 0 0 0 0 0 0 0 0 0 0 0 0 0 0 0 0 1 1 1 1 1 1 0 0 0 0 0 0 0 0 0 0 0 0 0 0 0 0 0 0 0 0 0 0 0
1 1 1 0 0 0 0 0 0 0 0 0 0 0 0 0 0 0 0 0 1 1 1 1 1 0 0 0 0 0 0 0 0 0 0 0 0 0 0 0 0 0 0 0 0 0 0 0 0
1 1 0 0 0 0 0 1 1 1 1 0 0 0 0 0 0 0 1 1 1 1 1 1 1 0 0 0 0 0 0 0 0 0 0 0 0 0 0 0 0 0 0 0 0 0 0 0 0
0 0 0 0 0 0 0 1 1 1 1 1 0 0 0 0 1 1 1 1 1 1 1 1 1 1 0 0 0 0 0 0 0 0 0 0 0 0 0 0 0 0 0 0 0 0 0 0 0
0 0 0 0 0 0 1 1 1 1 1 1 1 0 0 0 1 1 1 1 1 1 1 1 1 1 0 0 0 0 0 0 0 0 0 0 0 0 0 0 0 0 0 0 0 0 0 0 0
0 0 0 0 0 0 0 1 1 1 1 1 1 0 0 1 1 1 1 1 1 1 1 1 1 0 0 0 0 0 1 0 0 0 0 0 0 0 0 0 0 0 0 0 0 0 0 0 0
0 0 0 0 0 0 0 1 1 1 1 1 1 1 1 1 1 1 1 1 2 2 2 1 1 0 0 0 0 0 0 0 0 0 0 0 0 0 0 0 0 0 0 0 0 0 0 0 0
0 0 0 0 0 0 0 1 1 1 1 1 1 1 1 1 2 1 1 2 2 2 2 1 1 1 0 0 0 0 0 0 0 0 0 0 0 0 0 0 0 0 0 0 0 0 0 0 0
0 0 0 0 0 0 1 1 1 1 1 1 1 1 1 2 2 2 2 2 2 2 2 1 1 1 0 0 0 0 0 0 0 0 0 0 0 0 0 0 0 0 0 0 0 0 0 0 0
0 0 0 0 0 0 1 1 1 1 1 1 1 2 2 2 2 2 2 2 2 2 2 1 1 1 0 0 0 0 0 0 0 0 0 0 0 0 0 0 0 0 0 0 0 0 0 0 0
0 0 0 0 0 0 1 1 1 1 1 1 2 2 2 3 2 2 2 1 1 1 1 1 1 1 1 1 1 1 1 1 0 0 0 0 0 0 0 0 0 0 0 0 0 0 0 0 0
0 0 0 0 0 0 1 1 2 1 1 2 2 2 3 3 3 3 2 1 1 1 1 1 1 1 1 1 1 1 1 1 1 0 0 0 0 0 0 0 0 0 0 0 0 0 0 0 0
0 0 0 0 0 0 1 2 2 1 2 3 3 3 3 3 3 3 2 1 1 1 1 1 1 1 1 1 1 1 1 1 1 1 0 0 0 0 0 0 0 0 0 0 0 0 0 0 0
0 0 0 0 0 1 1 2 2 2 2 3 4 3 3 3 3 3 2 2 1 1 1 1 1 1 1 1 1 1 1 1 1 1 1 1 0 0 0 0 0 0 0 0 0 0 0 0 0
0 0 0 0 0 1 1 2 2 2 3 4 4 3 3 3 3 3 3 2 2 1 1 1 1 1 2 2 1 1 1 1 1 1 1 1 1 1 1 1 1 0 0 0 0 0 0 0 0
0 0 0 0 0 1 1 2 2 2 3 4 4 3 3 3 3 3 3 3 2 1 1 1 1 2 2 2 1 1 1 1 1 1 1 1 1 1 1 1 1 1 1 1 1 1 1 0 0
0 0 0 0 0 1 1 1 2 2 3 3 3 3 3 3 3 3 3 3 3 2 2 1 1 1 2 1 1 1 1 1 1 1 1 1 1 1 1 1 1 1 1 1 1 1 1 1 1
0 0 0 0 0 1 1 1 1 2 2 2 2 3 3 4 4 4 4 3 3 2 2 2 2 2 1 1 1 1 1 1 1 0 0 0 1 1 1 1 1 1 1 1 1 1 1 1 1
0 0 0 0 0 0 1 1 1 1 2 2 2 2 3 5 6 5 4 4 3 3 3 4 3 2 1 1 1 1 0 0 0 0 0 0 0 1 1 1 1 1 1 1 1 1 1 1 1
0 0 0 0 0 0 0 0 0 1 1 1 2 3 4 5 6 5 4 4 4 3 3 4 4 2 1 1 1 1 1 0 0 0 0 0 0 0 1 1 1 1 1 1 1 1 1 1 1
0 0 0 0 0 0 0 0 0 1 1 1 2 3 4 5 5 4 4 4 3 3 3 4 4 3 2 1 1 1 1 1 1 0 0 0 0 0 1 1 1 1 1 1 0 0 0 0 0
0 0 0 0 0 0 0 0 0 0 1 1 1 3 4 5 5 4 3 3 3 3 3 3 3 3 2 1 1 1 1 1 0 0 0 0 0 0 1 1 1 1 1 1 0 0 0 0 0
0 0 0 0 0 0 0 0 0 0 0 1 1 2 3 4 4 4 4 4 3 3 2 3 3 2 2 1 1 1 1 1 1 0 0 0 0 1 1 1 1 1 1 0 0 0 0 0 0
0 0 0 0 0 0 0 0 0 0 0 1 1 2 2 2 2 3 4 4 3 3 2 2 2 2 2 1 1 1 1 1 0 0 0 1 1 1 1 0 0 0 0 0 0 0 0 0 0
0 0 0 0 0 0 0 0 0 0 0 1 1 1 2 2 2 3 4 4 4 3 2 2 2 2 2 1 1 1 1 0 0 0 1 1 1 1 1 1 1 1 1 0 0 0 0 0 0
0 0 0 0 0 0 0 0 0 0 1 1 1 1 2 2 2 3 4 4 3 3 2 2 2 2 1 1 1 1 1 1 1 1 1 1 1 1 1 1 1 1 1 1 1 1 0 0 0
0 0 0 0 0 0 0 0 0 0 1 1 1 1 2 2 2 2 3 3 3 3 2 2 2 1 1 1 1 1 1 1 1 1 1 1 0 1 1 1 1 1 1 1 1 1 1 0 0
0 0 0 0 0 0 0 0 0 0 0 1 1 1 2 2 2 2 3 3 3 3 2 2 1 1 1 1 1 1 1 1 1 1 0 0 0 1 1 1 1 1 1 1 1 1 1 1 1
0 0 0 0 0 0 0 0 0 0 0 1 1 1 1 2 2 2 3 3 3 3 2 2 1 1 1 1 1 1 1 1 1 0 0 0 0 1 1 1 1 1 1 1 1 1 1 1 1
Wind_Speed
2 3 3 2 6 6 4 4 2 3 3 3 5 6 6 4 2 3 2 6 8 7 5 9 12 12 12 13 13 13 13 13 13 13 13 13 13 12 12 12 11 11 12 12 11 11 12 12 11
2 3 2 4 7 4 3 3 3 3 4 5 6 6 6 5 4 7 4 6 8 7 5 8 12 12 12 12 12 12 12 12 12 12 12 12 12 12 12 11 11 11 11 11 11 11 12 12 11
3 2 4 6 5 3 1 0 4 4 3 3 4 5 5 4 5 5 5 10 8 6 5 8 13 12 12 12 11 11 12 11 11 11 11 11 11 11 11 11 11 11 11 10 11 11 11 11 11
3 3 5 6 3 1 3 3 4 5 4 5 5 6 4 4 5 6 10 10 9 6 5 7 13 12 12 11 11 11 11 11 11 10 10 10 10 10 10 10 11 10 10 10 10 11 11 11 10
3 5 7 5 3 1 1 3 2 3 3 4 4 5 4 4 8 12 11 10 8 6 4 6 12 11 11 11 11 10 10 10 10 9 9 9 9 9 10 10 10 10 10 10 10 10 10 10 10
5 5 6 2 2 1 1 2 3 5 4 4 5 5 3 4 9 10 9 8 6 6 4 5 10 11 10 10 10 10 9 9 9 8 8 8 9 9 9 9 9 9 9 9 9 9 10 9 9
5 5 3 2 0 0 2 2 3 4 4 3 5 5 2 4 6 9 8 7 5 5 4 3 4 6 9 10 9 9 9 9 8 8 8 8 8 8 8 8 9 9 9 9 8 9 9 8 8
5 6 3 1 2 2 2 2 3 5 4 4 5 7 6 6 9 9 8 6 5 4 3 3 3 3 3 4 8 9 8 8 8 8 8 8 7 7 8 7 7 8 8 8 8 8 8 8 7
4 6 2 4 5 3 3 3 2 3 5 3 3 5 7 14 13 10 8 5 5 5 2 2 3 3 3 3 5 6 7 7 6 5 7 6 4 4 4 5 6 7 7 7 7 7 7 7 6
5 3 5 4 5 5 5 4 5 4 4 2 5 7 14 15 13 12 10 9 8 7 5 3 3 3 3 3 3 2 2 2 2 2 3 3 3 2 3 3 5 6 6 6 6 6 6 5 3
3 3 3 2 3 5 6 4 4 7 3 6 9 14 16 15 12 11 10 9 8 7 7 6 5 4 3 2 2 1 1 2 2 3 3 3 2 2 2 2 2 3 4 3 4 4 3 3 2
1 2 1 1 3 5 6 5 4 5 5 6 12 17 17 16 14 13 12 10 8 7 7 5 5 4 4 2 2 2 2 1 1 2 3 2 2 1 1 1 2 2 2 2 2 2 2 3 3
2 2 1 2 4 4 6 4 3 1 3 10 13 15 15 14 12 10 9 8 8 8 7 6 5 5 4 3 2 3 2 2 2 2 2 3 2 2 1 1 1 1 1 1 1 1 2 2 2
2 1 2 2 3 3 5 2 3 1 7 11 13 13 12 12 11 8 8 9 9 9 8 7 7 6 5 4 3 2 2 2 2 2 3 3 2 2 2 1 1 0 1 1 1 1 1 1 1
2 4 5 3 2 2 5 2 1 3 9 10 10 10 11 10 10 11 11 10 10 9 8 7 7 6 5 5 4 3 2 2 2 2 3 3 3 3 2 2 1 1 1 1 1 1 1 1 1
4 5 3 4 1 2 5 3 3 5 9 9 9 9 9 8 9 9 9 9 8 8 8 8 7 7 6 4 3 2 2 2 2 2 3 4 4 4 3 2 2 1 1 1 1 1 1 0 1
6 2 2 4 0 2 3 4 3 6 8 8 8 8 8 6 7 7 8 8 8 9 9 8 7 7 6 4 3 3 2 3 2 2 2 3 4 4 3 2 2 2 2 1 1 1 1 1 1
2 2 2 3 2 2 2 4 2 6 7 8 7 6 7 8 8 7 7 7 7 7 7 7 6 6 5 3 2 1 2 2 2 2 3 3 3 4 3 2 2 2 2 2 1 2 1 1 1
2 1 3 4 2 2 2 3 3 5 6 6 6 6 7 6 5 5 6 7 7 7 7 8 7 6 5 3 3 2 2 2 2 2 3 4 4 4 4 3 3 3 3 3 3 2 2 1 1
1 1 2 3 2 2 0 2 1 4 7 8 9 8 7 6 5 6 6 7 8 8 8 8 8 8 6 4 3 2 2 2 2 2 2 3 4 4 4 4 3 3 3 3 3 3 2 1 2
1 2 2 2 2 4 3 5 2 2 3 4 5 6 6 8 8 7 7 8 8 9 9 9 8 8 7 5 3 2 2 1 1 1 2 3 3 4 3 4 4 3 3 3 4 4 4 3 2
3 3 3 2 3 3 3 2 6 3 4 5 6 6 7 7 7 7 8 8 8 8 7 7 7 7 7 6 5 5 4 4 4 2 2 2 3 3 4 4 4 4 3 4 4 4 3 3 3
3 2 3 3 3 3 3 1 8 3 4 7 7 8 8 8 8 8 9 8 7 7 7 6 6 6 6 6 7 6 4 3 2 1 2 2 2 3 3 4 4 4 4 4 4 3 4 3 3
4 7 7 6 6 2 2 1 7 4 6 5 5 7 7 7 7 7 6 6 5 6 6 6 7 6 6 7 6 6 6 5 3 3 3 2 1 2 2 3 3 4 3 4 4 4 4 4 4
5 7 5 6 5 4 3 2 10 7 7 7 6 6 6 7 7 7 7 7 7 8 8 7 7 6 6 6 6 6 6 5 5 4 3 3 2 2 3 3 3 3 3 3 3 3 4 4 4
4 9 8 5 4 5 3 5 9 6 5 4 4 4 5 6 6 7 8 8 8 8 8 8 8 7 6 6 6 5 5 4 3 3 3 3 3 3 2 2 2 2 2 3 2 2 3 3 4
6 3 6 8 3 1 5 7 10 2 2 0 3 4 6 6 7 7 7 7 7 8 8 9 8 7 6 6 5 5 4 4 3 3 3 2 2 2 2 2 2 2 2 2 2 2 2 2 3
5 9 6 7 6 2 5 5 6 5 5 3 4 6 6 6 6 6 6 7 7 7 6 7 7 7 6 6 5 4 4 4 3 3 3 3 2 2 2 1 1 1 1 1 1 1 2 2 2
4 5 6 5 5 7 3 8 8 8 7 7 8 7 7 7 8 7 6 6 6 6 6 6 6 6 5 5 5 4 4 4 3 3 3 2 2 2 2 2 2 1 1 1 1 2 2 2 2
4 7 8 6 4 4 5 10 6 6 6 6 7 6 5 6 6 6 6 6 6 6 6 7 6 6 5 5 5 4 4 3 3 3 2 2 2 2 2 1 1 1 1 1 1 1 1 1 1
Wind_Direction
196 142 137 90 55 47 26 353 38 67 63 65 90 89 98 84 115 135 121 133 130 133 137 134 130 125 120 117 115 113 113 113 113 113 114 115 115 116 116 115 113 113 113 112 112 112 114 115 118
149 147 96 61 73 56 353 348 58 72 130 123 86 79 77 70 72 105 126 138 131 132 131 135 133 128 124 121 119 118 116 115 115 115 116 117 117 118 118 115 114 113 113 113 114 115 114 114 116
160 139 76 66 76 128 149 19 112 100 97 91 81 67 79 107 123 136 149 137 124 125 129 143 136 132 128 125 123 121 119 119 118 118 118 119 119 120 119 118 117 114 113 113 115 117 116 115 116
117 56 53 63 57 230 177 169 137 115 66 57 87 71 66 100 137 139 137 134 126 125 131 146 138 135 132 130 127 125 125 124 123 123 122 122 121 121 121 120 116 113 112 112 115 116 116 115 115
67 73 56 42 6 353 129 155 134 99 80 69 82 84 54 42 107 125 133 135 134 132 134 143 139 138 136 134 133 131 128 126 125 125 125 125 123 123 123 120 117 114 112 110 112 115 117 115 114
60 65 72 40 352 16 104 133 105 85 89 87 85 88 54 96 120 132 132 131 134 133 130 137 144 142 141 139 137 134 131 129 128 125 124 124 124 123 124 123 120 117 113 110 110 111 114 115 114
95 86 112 143 116 75 174 122 118 119 113 117 114 98 90 127 131 128 123 122 123 123 123 127 138 143 146 145 142 140 137 133 130 128 126 125 126 126 126 123 122 119 115 112 110 111 111 111 110
116 97 90 142 166 217 158 120 128 128 123 120 121 137 170 166 133 118 114 116 119 119 121 125 119 117 123 138 146 144 141 138 135 133 131 129 126 126 125 120 122 121 120 119 116 111 109 106 104
89 75 148 198 182 200 155 134 124 95 115 123 119 148 151 138 131 125 126 132 145 151 134 130 124 118 118 135 154 147 146 144 138 134 128 111 78 79 101 123 128 126 125 124 120 114 110 101 95
80 113 220 207 183 167 160 150 152 121 124 101 78 96 126 139 145 150 159 166 169 172 174 160 148 142 142 156 124 108 108 108 99 89 91 83 78 82 98 117 129 127 124 120 116 112 105 92 79
106 180 236 217 167 144 147 147 140 133 178 189 160 147 147 152 159 167 173 175 178 175 180 173 166 162 159 141 128 113 104 101 99 103 99 91 77 66 59 53 72 74 84 73 81 80 81 94 100
94 263 205 190 133 136 150 147 142 172 208 172 153 152 155 164 173 179 178 179 177 177 187 179 169 169 170 156 153 142 138 127 118 114 118 111 100 86 73 64 60 59 67 76 73 81 86 96 111
19 313 337 107 115 130 122 134 152 195 110 120 134 150 165 174 182 184 178 176 175 183 188 183 177 182 175 170 178 166 164 157 149 142 148 149 147 146 124 84 62 66 83 99 97 97 102 107 119
317 349 353 68 93 112 123 109 103 173 126 130 147 164 175 180 181 177 177 181 185 188 189 182 187 186 175 177 180 170 168 168 161 168 175 169 167 165 155 143 121 90 101 119 120 120 118 117 124
22 40 22 26 82 121 107 71 201 172 140 145 162 173 180 185 183 187 186 188 190 189 186 185 187 181 180 183 185 173 170 168 176 183 185 179 174 175 170 169 178 179 142 118 102 93 87 114 119
45 53 15 308 62 113 118 216 225 157 151 161 174 179 185 191 193 193 186 187 187 182 181 186 188 181 183 178 173 164 165 173 186 190 193 191 182 177 174 181 194 181 148 139 137 127 111 115 138
32 40 303 308 334 128 149 224 211 164 164 175 184 185 186 189 200 198 188 185 182 183 179 179 180 176 175 164 163 164 169 183 188 191 197 198 188 181 180 193 197 171 157 170 180 144 157 176 188
314 319 307 291 292 132 184 236 198 176 179 187 190 190 187 196 205 193 184 177 177 179 174 174 171 167 158 147 140 140 158 181 183 194 205 196 190 184 182 195 196 169 166 184 183 172 156 166 181
190 235 284 276 276 133 212 242 219 185 188 195 200 200 195 204 201 188 180 172 167 169 170 173 171 169 162 159 158 164 186 191 192 205 203 193 189 186 186 198 189 181 189 198 188 168 170 182 148
177 305 303 321 13 85 304 301 259 200 210 206 204 204 196 188 185 187 177 174 174 179 180 179 179 175 181 175 159 161 162 185 193 203 197 198 192 192 197 194 195 193 193 191 188 175 167 181 167
278 201 217 220 14 36 45 341 318 264 239 227 211 205 198 192 194 188 182 183 181 186 185 187 184 180 183 168 139 119 102 92 161 208 211 208 196 199 201 195 194 197 194 203 204 188 180 191 197
271 250 187 153 85 353 40 304 293 280 272 238 219 204 204 196 190 186 186 189 189 189 180 182 179 178 178 170 170 167 175 188 202 197 205 210 204 206 200 195 196 196 197 206 212 198 193 183 198
210 49 90 84 106 45 22 116 289 318 267 250 226 213 207 192 187 189 190 191 184 174 173 175 171 176 177 177 181 180 184 189 183 179 202 217 219 214 205 197 196 200 206 211 212 198 199 197 196
129 68 51 47 64 36 306 175 280 251 234 252 224 210 200 183 182 186 183 169 166 164 166 167 170 178 177 179 184 188 188 182 177 190 203 214 216 232 226 210 201 205 208 211 212 207 204 207 207
96 85 36 11 17 260 286 241 253 256 247 237 228 216 191 176 176 177 176 175 174 172 173 171 173 181 179 181 189 191 192 186 191 197 202 202 210 230 234 223 211 210 211 210 209 204 211 209 211
155 134 151 181 212 275 318 248 257 267 276 246 212 195 172 175 177 182 184 182 181 176 172 173 178 182 179 185 192 188 187 188 196 199 197 203 214 224 224 210 205 203 203 213 209 210 218 211 215
132 147 151 125 144 314 292 292 301 296 319 200 170 167 182 185 182 185 181 179 179 178 180 179 177 177 181 186 183 181 184 189 196 197 198 206 209 204 201 197 196 202 198 197 197 216 227 216 219
131 140 104 114 138 223 293 287 262 273 254 228 207 201 198 185 182 183 181 181 181 182 177 172 174 178 178 178 182 183 186 188 191 182 190 196 196 184 178 191 193 199 190 183 194 219 227 211 224
108 100 102 108 143 151 222 268 231 227 227 218 221 213 199 191 189 189 185 179 174 164 162 167 170 169 170 175 176 178 179 174 171 176 188 188 180 171 175 185 178 175 190 185 185 220 219 215 225
164 163 146 147 194 168 170 262 264 235 236 220 222 216 200 192 187 182 176 166 166 166 167 171 172 174 175 171 167 169 164 154 156 164 169 161 156 147 147 141 138 137 131 150 181 229 227 202 217